Location: Baia Mare
(47.6567°N, 23.5850°E)
Time: 12:08:11
(UTC+02:00)

ISS - Pass Details

Date: 03 January 2019
Orbit: 404 x 407 km, 51.6° (Epoch: 16 January)

Event Time Altitude Azimuth Distance (km) Brightness Sun altitude
Exits shadow 07:20:03 12° 298° (WNW) 1,340 -1.9 -8.8°
Maximum altitude 07:22:56 48° 12° (NNE) 546 -3.3 -8.3°
Drops below altitude 10° 07:26:08 10° 89° (E) 1,469 0.1 -7.8°
Sets 07:28:16 0° 95° (E) 2,328 1.5 -7.5°
